EW3370 Weather Reports


Display with metric or nautical units.
time (UTC)temp
F
wind
direction
speed
MPH
gust
MPH
rain 1hr
in
rain 24hr
in
rain mn
in
humidity
%
barometer
mb
20260509221032 72 259 5.0 8.0 0.00 0.00 0.00 69 1011.8
20260509220538 72 239 3.0 9.0 0.00 0.00 0.00 71 1011.9
20260509220037 71 280 5.0 13.0 0.00 0.00 0.00 71 1012.0
20260509215520 72 292 4.0 13.0 0.00 0.00 0.00 70 1012.0
20260509215023 72 262 3.0 10.0 0.00 0.00 0.00 70 1011.9
20260509214543 72 282 4.0 10.0 0.00 0.00 0.00 71 1011.9
20260509214028 71 246 4.0 8.0 0.00 0.00 0.00 71 1012.0
20260509213530 72 269 5.0 9.0 0.00 0.00 0.00 70 1012.1
20260509213025 71 270 5.0 9.0 0.00 0.00 0.00 72 1012.1
20260509212533 71 331 4.0 9.0 0.00 0.00 0.00 71 1012.2
20260509212057 71 267 5.0 9.0 0.00 0.00 0.00 71 1012.2
20260509211531 71 262 5.0 9.0 0.00 0.00 0.00 70 1012.2
20260509211035 71 279 4.0 9.0 0.00 0.00 0.00 70 1012.3
20260509210600 71 267 5.0 9.0 0.00 0.00 0.00 71 1012.4
20260509210022 71 232 4.0 9.0 0.00 0.00 0.00 71 1012.5
20260509205529 71 256 5.0 10.0 0.00 0.00 0.00 71 1012.5
20260509205035 71 284 4.0 10.0 0.00 0.00 0.00 71 1012.5
20260509204521 71 279 5.0 9.0 0.00 0.00 0.00 71 1012.6
20260509204023 71 267 5.0 9.0 0.00 0.00 0.00 71 1012.6
20260509203526 71 276 5.0 9.0 0.00 0.00 0.00 71 1012.6
20260509203031 71 258 4.0 11.0 0.00 0.00 0.00 71 1012.7
20260509202532 72 252 5.0 11.0 0.00 0.00 0.00 69 1012.8
20260509202034 72 242 5.0 10.0 0.00 0.00 0.00 68 1012.7
20260509201522 72 300 4.0 9.0 0.00 0.00 0.00 68 1012.7
20260509201029 73 261 4.0 11.0 0.00 0.00 0.00 69 1012.8
20260509200557 72 240 4.0 11.0 0.00 0.00 0.00 69 1012.7
20260509200100 72 306 4.0 11.0 0.00 0.00 0.00 69 1012.8
20260509195544 72 289 5.0 10.0 0.00 0.00 0.00 69 1012.8
20260509195028 72 292 4.0 11.0 0.00 0.00 0.00 69 1012.8
20260509194530 72 277 5.0 11.0 0.00 0.00 0.00 70 1012.8
20260509194033 72 252 5.0 12.0 0.00 0.00 0.00 69 1012.8
20260509193538 72 313 4.0 12.0 0.00 0.00 0.00 70 1012.8
20260509193022 72 272 5.0 12.0 0.00 0.00 0.00 69 1012.9
20260509192527 72 281 5.0 12.0 0.00 0.00 0.00 70 1012.8
20260509192033 72 254 4.0 12.0 0.00 0.00 0.00 71 1012.8
20260509191522 72 246 6.0 11.0 0.00 0.00 0.00 70 1012.9
20260509191028 72 261 5.0 11.0 0.00 0.00 0.00 70 1012.9
20260509190527 72 302 4.0 11.0 0.00 0.00 0.00 71 1012.9
20260509190032 72 267 4.0 9.0 0.00 0.00 0.00 71 1012.9
20260509185519 72 321 5.0 9.0 0.00 0.00 0.00 71 1013.0
20260509185023 72 313 4.0 8.0 0.00 0.00 0.00 70 1013.0
20260509184527 72 252 4.0 8.0 0.00 0.00 0.00 71 1013.0
20260509184029 71 259 4.0 11.0 0.00 0.00 0.00 72 1013.0
20260509183531 71 257 5.0 11.0 0.00 0.00 0.00 71 1013.0
20260509183028 72 279 4.0 10.0 0.00 0.00 0.00 72 1012.9
20260509182527 71 256 5.0 9.0 0.00 0.00 0.00 71 1013.0
20260509182030 71 269 3.0 8.0 0.00 0.00 0.00 72 1013.0
20260509181542 71 286 4.0 9.0 0.00 0.00 0.00 72 1013.0
20260509181022 71 300 4.0 9.0 0.00 0.00 0.00 72 1012.9
20260509180528 71 288 2.0 7.0 0.00 0.00 0.00 73 1013.0
20260509180024 71 282 3.0 8.0 0.00 0.00 0.00 74 1013.0
20260509175526 70 265 3.0 8.0 0.00 0.00 0.00 75 1013.0
20260509175027 70 248 3.0 8.0 0.00 0.00 0.00 75 1013.1
20260509174529 70 253 3.0 7.0 0.00 0.00 0.00 76 1013.1
20260509174030 70 260 3.0 7.0 0.00 0.00 0.00 76 1013.2
20260509173534 69 262 4.0 9.0 0.00 0.00 0.00 76 1013.2
20260509173029 69 271 3.0 9.0 0.00 0.00 0.00 77 1013.2
20260509172536 69 244 3.0 9.0 0.00 0.00 0.00 77 1013.2
20260509172038 69 258 3.0 8.0 0.00 0.00 0.00 78 1013.2
20260509171541 68 223 4.0 8.0 0.00 0.00 0.00 77 1013.3
20260509171040 69 279 4.0 8.0 0.00 0.00 0.00 78 1013.2
20260509170559 69 264 1.0 8.0 0.00 0.00 0.00 78 1013.2
20260509170044 68 288 3.0 6.0 0.00 0.00 0.00 80 1013.2
20260509165526 67 292 3.0 6.0 0.00 0.00 0.00 81 1013.2
20260509165033 67 262 2.0 6.0 0.00 0.00 0.00 81 1013.2
20260509164517 67 248 1.0 6.0 0.00 0.00 0.00 82 1013.1
20260509164044 66 273 2.0 6.0 0.00 0.00 0.00 82 1013.2
20260509163529 66 243 2.0 6.0 0.00 0.00 0.00 83 1013.2
20260509163030 65 246 1.0 4.0 0.00 0.00 0.00 84 1013.3
20260509162535 65 252 1.0 6.0 0.00 0.00 0.00 84 1013.3
20260509162039 65 259 3.0 6.0 0.00 0.00 0.00 84 1013.4
20260509161543 65 270 2.0 5.0 0.00 0.00 0.00 85 1013.4
20260509161026 65 262 1.0 5.0 0.00 0.00 0.00 85 1013.4
20260509160529 65 254 2.0 5.0 0.00 0.00 0.00 85 1013.4
20260509160038 65 257 0.0 3.0 0.00 0.00 0.00 86 1013.4
20260509155539 64 257 1.0 3.0 0.00 0.00 0.00 86 1013.4
20260509155022 64 257 0.0 3.0 0.00 0.00 0.00 86 1013.3
20260509154525 64 257 1.0 3.0 0.00 0.00 0.00 86 1013.4
20260509154026 64 256 0.0 2.0 0.00 0.00 0.00 87 1013.4
20260509153539 64 256 0.0 1.0 0.00 0.00 0.00 87 1013.4
20260509153022 64 256 0.0 3.0 0.00 0.00 0.00 87 1013.4
20260509152524 64 256 1.0 3.0 0.00 0.00 0.00 87 1013.4
20260509152026 64 255 0.0 4.0 0.00 0.00 0.00 88 1013.3
20260509151528 63 254 1.0 4.0 0.00 0.00 0.00 88 1013.4
20260509151031 63 287 1.0 4.0 0.00 0.00 0.00 88 1013.4
20260509150535 63 223 1.0 3.0 0.00 0.00 0.00 88 1013.4
20260509150039 63 223 0.0 3.0 0.00 0.00 0.00 88 1013.3
20260509145519 63 223 0.0 3.0 0.00 0.00 0.00 88 1013.4
20260509145025 63 223 1.0 3.0 0.00 0.00 0.00 88 1013.4
20260509144526 63 250 1.0 4.0 0.00 0.00 0.00 88 1013.4
20260509144029 63 250 1.0 4.0 0.00 0.00 0.00 88 1013.3
20260509143538 63 209 0.0 2.0 0.00 0.00 0.00 88 1013.2
20260509143041 63 209 0.0 2.0 0.00 0.00 0.00 88 1013.2
20260509142523 63 209 0.0 2.0 0.00 0.00 0.00 88 1013.2
20260509142050 63 200 0.0 1.0 0.00 0.00 0.00 88 1013.1
20260509141527 63 200 0.0 2.0 0.00 0.00 0.00 88 1013.2
20260509141050 63 200 0.0 2.0 0.00 0.00 0.00 88 1013.2
20260509140537 63 199 0.0 2.0 0.00 0.00 0.00 89 1013.1
20260509140020 63 199 0.0 2.0 0.00 0.00 0.00 89 1013.1
20260509135524 63 199 0.0 2.0 0.00 0.00 0.00 88 1013.0
20260509135028 63 199 0.0 2.0 0.00 0.00 0.00 88 1013.0
20260509134528 63 199 0.0 2.0 0.00 0.00 0.00 88 1013.0
20260509134036 63 199 0.0 2.0 0.00 0.00 0.00 88 1013.0
20260509133520 63 199 0.0 1.0 0.00 0.00 0.00 88 1012.9
20260509133021 63 198 0.0 2.0 0.00 0.00 0.00 88 1012.9
20260509132523 63 198 0.0 2.0 0.00 0.00 0.00 88 1012.9
20260509132051 63 198 0.0 2.0 0.00 0.00 0.00 88 1012.9
20260509131526 63 198 0.0 3.0 0.00 0.00 0.00 88 1012.8
20260509131030 63 198 1.0 3.0 0.00 0.00 0.00 88 1012.8
20260509130537 63 246 0.0 1.0 0.00 0.00 0.00 88 1012.8
20260509130020 63 246 0.0 1.0 0.00 0.00 0.00 88 1012.7
20260509125524 63 246 0.0 2.0 0.00 0.00 0.00 88 1012.7
20260509125028 63 246 0.0 2.0 0.00 0.00 0.00 88 1012.7
20260509124530 63 246 0.0 1.0 0.00 0.00 0.00 88 1012.7
20260509124058 63 246 0.0 1.0 0.00 0.00 0.00 89 1012.7
20260509123519 63 246 0.0 1.0 0.00 0.00 0.00 89 1012.7
20260509123029 63 246 0.0 1.0 0.00 0.00 0.00 89 1012.6
20260509122532 63 246 0.0 1.0 0.00 0.00 0.00 89 1012.6
20260509122019 63 246 0.0 0.0 0.00 0.00 0.00 89 1012.6
20260509121525 63 246 0.0 0.0 0.00 0.00 0.00 89 1012.6
20260509121028 63 246 0.0 0.0 0.00 0.00 0.00 89 1012.6
20260509120537 63 246 0.0 0.0 0.00 0.00 0.00 89 1012.6
20260509120020 63 246 0.0 0.0 0.00 0.00 0.00 89 1012.6
20260509115526 63 246 0.0 1.0 0.00 0.00 0.00 89 1012.6
20260509115052 63 246 0.0 1.0 0.00 0.00 0.00 89 1012.7
20260509114521 63 246 0.0 2.0 0.00 0.00 0.00 89 1012.7
20260509114024 63 246 0.0 2.0 0.00 0.00 0.00 89 1012.7
20260509113555 63 246 0.0 4.0 0.00 0.00 0.00 89 1012.7
20260509113017 63 246 0.0 4.0 0.00 0.00 0.00 89 1012.7
20260509112521 63 257 0.0 2.0 0.00 0.00 0.00 89 1012.7
20260509112029 63 257 0.0 3.0 0.00 0.00 0.00 89 1012.7
20260509111538 63 257 1.0 3.0 0.00 0.00 0.00 89 1012.7
20260509111043 63 240 0.0 0.0 0.00 0.00 0.00 89 1012.6
20260509110526 63 240 0.0 0.0 0.00 0.00 0.00 89 1012.6
20260509110031 63 240 0.0 1.0 0.00 0.00 0.00 89 1012.6
20260509105537 63 240 0.0 1.0 0.00 0.00 0.00 89 1012.6
20260509105020 63 240 0.0 0.0 0.00 0.00 0.00 89 1012.7
20260509104524 63 240 0.0 0.0 0.00 0.00 0.00 89 1012.7
20260509104027 63 240 0.0 0.0 0.00 0.00 0.00 89 1012.7
20260509103534 63 240 0.0 0.0 0.00 0.00 0.00 89 1012.7
20260509103035 63 240 0.0 2.0 0.00 0.00 0.00 89 1012.7
20260509102519 63 240 0.0 2.0 0.00 0.00 0.00 89 1012.8
20260509102022 63 244 0.0 4.0 0.00 0.00 0.00 89 1012.9
20260509101536 63 244 0.0 4.0 0.00 0.00 0.00 89 1012.8
20260509101020 63 244 1.0 4.0 0.00 0.00 0.00 89 1012.8
20260509100525 63 244 0.0 0.0 0.00 0.00 0.00 89 1012.8
20260509100034 63 244 0.0 0.0 0.00 0.00 0.00 89 1013.0
20260509095537 63 244 0.0 1.0 0.00 0.00 0.00 89 1012.9
20260509095020 63 244 0.0 2.0 0.00 0.00 0.00 89 1012.9
20260509094522 63 244 0.0 2.0 0.00 0.00 0.00 89 1012.9
20260509094049 63 244 0.0 2.0 0.00 0.00 0.00 89 1013.0
20260509093535 63 244 0.0 3.0 0.00 0.00 0.00 89 1013.0
20260509093032 63 244 0.0 3.0 0.00 0.00 0.00 89 1013.0
20260509092529 63 244 0.0 2.0 0.00 0.00 0.00 89 1013.1
20260509092030 63 244 0.0 2.0 0.00 0.00 0.00 89 1013.0
20260509091538 63 244 0.0 1.0 0.00 0.00 0.00 88 1013.1
20260509091040 63 244 0.0 2.0 0.00 0.00 0.00 88 1013.2
20260509090522 63 244 0.0 2.0 0.00 0.00 0.00 88 1013.2
20260509090020 63 244 0.0 2.0 0.00 0.00 0.00 88 1013.2
20260509085546 63 244 0.0 2.0 0.00 0.00 0.00 89 1013.2
20260509085026 63 244 0.0 2.0 0.00 0.00 0.00 88 1013.2
20260509084526 63 244 0.0 2.0 0.00 0.00 0.00 88 1013.2
20260509084021 63 246 0.0 1.0 0.00 0.00 0.00 88 1013.2
20260509083520 63 251 0.0 3.0 0.00 0.00 0.00 88 1013.3
20260509083050 63 251 1.0 3.0 0.00 0.00 0.00 88 1013.3
20260509082525 63 250 1.0 3.0 0.00 0.00 0.00 88 1013.4
20260509082052 63 250 1.0 2.0 0.00 0.00 0.00 88 1013.4
20260509081538 63 251 0.0 2.0 0.00 0.00 0.00 88 1013.5
20260509081043 63 252 0.0 1.0 0.00 0.00 0.00 88 1013.5
20260509080528 63 252 0.0 1.0 0.00 0.00 0.00 88 1013.5
20260509080023 63 252 0.0 1.0 0.00 0.00 0.00 88 1013.6
20260509075526 63 252 0.0 2.0 0.00 0.00 0.00 88 1013.7
20260509075032 63 252 0.0 2.0 0.00 0.00 0.00 88 1013.8
20260509074538 63 252 0.0 2.0 0.00 0.00 0.00 88 1013.9
20260509074019 63 252 0.0 2.0 0.00 0.00 0.00 88 1013.9
20260509073522 63 252 0.0 3.0 0.00 0.00 0.00 88 1013.9
20260509073025 63 252 0.0 3.0 0.00 0.00 0.00 88 1013.9
20260509072550 63 252 0.0 3.0 0.00 0.00 0.00 88 1013.8
20260509072029 63 252 0.0 3.0 0.00 0.00 0.00 88 1013.8
20260509071534 63 252 1.0 3.0 0.00 0.00 0.00 88 1013.8
20260509071041 63 254 0.0 1.0 0.00 0.00 0.00 88 1013.8
20260509070522 63 254 0.0 2.0 0.00 0.00 0.00 88 1013.8
20260509070028 63 254 0.0 2.0 0.00 0.00 0.00 88 1013.9
20260509065528 63 254 0.0 0.0 0.00 0.00 0.00 88 1014.0
20260509065038 63 254 0.0 2.0 0.00 0.00 0.00 88 1014.0
20260509064554 63 254 1.0 2.0 0.00 0.00 0.00 88 1014.0
20260509064102 63 254 0.0 0.0 0.00 0.00 0.00 88 1014.0
20260509063539 63 254 0.0 0.0 0.00 0.00 0.00 88 1014.0
20260509063020 63 254 0.0 0.0 0.00 0.00 0.00 88 1014.0
20260509062536 63 254 0.0 0.0 0.00 0.00 0.00 88 1014.0
20260509062020 63 254 0.0 0.0 0.00 0.00 0.00 88 1014.0
20260509061521 63 254 0.0 0.0 0.00 0.00 0.00 88 1014.0
20260509061025 63 254 0.0 0.0 0.00 0.00 0.00 88 1014.1
20260509060528 63 254 0.0 0.0 0.00 0.00 0.00 88 1014.1
20260509060037 63 254 0.0 0.0 0.00 0.00 0.00 88 1014.1
20260509055522 63 254 0.0 0.0 0.00 0.00 0.00 88 1014.2
20260509055024 63 254 0.0 0.0 0.00 0.00 0.00 88 1014.2
20260509054526 63 254 0.0 0.0 0.00 0.00 0.00 88 1014.1
20260509054029 63 254 0.0 0.0 0.00 0.00 0.00 88 1014.2
20260509053538 63 254 0.0 0.0 0.00 0.00 0.00 88 1014.2
20260509053033 63 254 0.0 2.0 0.00 0.00 0.00 87 1014.2
20260509052559 63 254 0.0 2.0 0.00 0.00 0.00 87 1014.3
20260509052026 63 255 1.0 3.0 0.00 0.00 0.00 88 1014.2
20260509051535 63 255 0.0 3.0 0.00 0.00 0.00 88 1014.2
20260509051020 63 255 1.0 3.0 0.00 0.00 0.00 88 1014.2
20260509050524 63 255 0.0 2.0 0.00 0.00 0.00 88 1014.2
20260509050050 63 255 0.0 2.0 0.00 0.00 0.00 88 1014.2
20260509045537 63 255 1.0 4.0 0.00 0.00 0.00 88 1014.3
20260509045019 63 255 2.0 4.0 0.00 0.00 0.00 87 1014.2
20260509044524 63 259 1.0 4.0 0.00 0.00 0.00 87 1014.2
20260509044027 63 259 0.0 4.0 0.00 0.00 0.00 87 1014.1
20260509043554 63 261 1.0 3.0 0.00 0.00 0.00 87 1014.1
20260509043038 63 261 1.0 3.0 0.00 0.00 0.00 87 1014.1
20260509042524 63 261 1.0 2.0 0.00 0.00 0.00 87 1014.1
20260509042029 63 261 0.0 3.0 0.00 0.00 0.00 87 1014.0
20260509041536 63 261 0.0 3.0 0.00 0.00 0.00 87 1014.0
20260509041020 63 284 1.0 3.0 0.00 0.00 0.00 87 1014.0
20260509040527 64 285 0.0 3.0 0.00 0.00 0.00 87 1013.9
20260509040027 64 285 1.0 3.0 0.00 0.00 0.00 87 1013.9
20260509035530 64 285 0.0 1.0 0.00 0.00 0.00 87 1013.9
20260509035059 64 285 0.0 4.0 0.00 0.00 0.00 87 1013.9
20260509034520 64 285 1.0 4.0 0.00 0.00 0.00 87 1013.8
20260509034025 64 302 1.0 2.0 0.00 0.00 0.00 87 1013.8
20260509033530 64 327 0.0 1.0 0.00 0.00 0.00 86 1013.7
20260509033034 63 327 0.0 1.0 0.00 0.00 0.00 86 1013.6
20260509032538 63 327 0.0 1.0 0.00 0.00 0.00 86 1013.6
20260509032021 63 327 0.0 2.0 0.00 0.00 0.00 86 1013.6
20260509031527 63 327 0.0 5.0 0.00 0.00 0.00 86 1013.6
20260509031028 64 327 1.0 5.0 0.00 0.00 0.00 85 1013.6
20260509030540 64 273 1.0 4.0 0.00 0.00 0.00 85 1013.6
20260509030020 64 282 1.0 4.0 0.00 0.00 0.00 85 1013.6
20260509025546 64 267 1.0 5.0 0.00 0.00 0.00 85 1013.6
20260509025025 64 269 2.0 6.0 0.00 0.00 0.00 85 1013.5
20260509024551 64 257 2.0 6.0 0.00 0.00 0.00 85 1013.4
20260509024054 64 225 2.0 5.0 0.00 0.00 0.00 84 1013.4
20260509023539 64 272 2.0 5.0 0.00 0.00 0.00 84 1013.3
20260509023023 64 296 3.0 5.0 0.00 0.00 0.00 84 1013.3
20260509022524 65 311 1.0 6.0 0.00 0.00 0.00 84 1013.3
20260509022024 65 261 1.0 6.0 0.00 0.00 0.00 83 1013.3
20260509021523 65 249 2.0 5.0 0.00 0.00 0.00 83 1013.2
20260509021027 65 267 2.0 5.0 0.00 0.00 0.00 83 1013.1
20260509020528 65 305 2.0 5.0 0.00 0.00 0.00 83 1013.1
20260509020037 65 327 2.0 5.0 0.00 0.00 0.00 82 1013.1
20260509015521 65 336 2.0 5.0 0.00 0.00 0.00 82 1013.1
20260509015022 65 269 1.0 6.0 0.00 0.00 0.00 82 1013.0
20260509014537 65 251 2.0 7.0 0.00 0.00 0.00 81 1013.0
20260509014045 66 272 3.0 7.0 0.00 0.00 0.00 82 1013.0
20260509013549 66 262 2.0 7.0 0.00 0.00 0.00 81 1013.0
20260509013022 66 289 3.0 7.0 0.00 0.00 0.00 81 1013.0
20260509012528 66 315 3.0 7.0 0.00 0.00 0.00 80 1013.0
20260509012034 67 286 3.0 6.0 0.00 0.00 0.00 79 1013.0
20260509011539 67 297 2.0 6.0 0.00 0.00 0.00 79 1013.0
20260509011045 67 271 2.0 6.0 0.00 0.00 0.00 79 1012.9
20260509010551 67 273 2.0 7.0 0.00 0.00 0.00 78 1012.9
20260509010031 67 303 3.0 7.0 0.00 0.00 0.00 78 1013.0
20260509005535 68 276 3.0 7.0 0.00 0.00 0.00 78 1013.0
20260509005020 68 298 4.0 7.0 0.00 0.00 0.00 77 1013.0
20260509004529 68 288 4.0 6.0 0.00 0.00 0.00 76 1013.1
20260509004035 69 236 4.0 7.0 0.00 0.00 0.00 76 1013.0
20260509003538 69 296 4.0 7.0 0.00 0.00 0.00 75 1013.0
20260509003021 70 291 3.0 8.0 0.00 0.00 0.00 74 1012.9
20260509002539 70 306 4.0 8.0 0.00 0.00 0.00 73 1012.9
20260509002035 70 290 3.0 6.0 0.00 0.00 0.00 73 1012.9
20260509001558 71 326 3.0 7.0 0.00 0.00 0.00 73 1012.9
20260509001021 70 273 3.0 10.0 0.00 0.00 0.00 73 1013.0
20260509000524 70 310 4.0 10.0 0.00 0.00 0.00 73 1013.0
20260509000030 70 342 3.0 10.0 0.00 0.00 0.00 73 1013.1
20260508235531 70 284 5.0 10.0 0.00 0.00 0.00 73 1013.1
20260508235036 70 248 4.0 9.0 0.00 0.00 0.00 73 1013.1
20260508234520 70 279 4.0 10.0 0.00 0.00 0.00 74 1013.2
20260508234020 70 284 5.0 10.0 0.00 0.00 0.00 74 1013.3
20260508233523 70 309 5.0 11.0 0.00 0.00 0.00 74 1013.3
20260508233054 70 265 5.0 12.0 0.00 0.00 0.00 73 1013.3
20260508232520 70 322 5.0 12.0 0.00 0.00 0.00 73 1013.3
20260508232024 71 277 5.0 11.0 0.00 0.00 0.00 73 1013.4
20260508231525 71 339 6.0 11.0 0.00 0.00 0.00 72 1013.4
20260508231048 72 331 5.0 10.0 0.00 0.00 0.00 72 1013.5
20260508230537 71 327 4.0 10.0 0.00 0.00 0.00 72 1013.6
20260508230021 71 286 3.0 12.0 0.00 0.00 0.00 72 1013.5
20260508225548 71 314 5.0 12.0 0.00 0.00 0.00 72 1013.5
20260508225034 72 323 4.0 11.0 0.00 0.00 0.00 72 1013.6
20260508224517 72 351 5.0 11.0 0.00 0.00 0.00 72 1013.6
20260508224023 72 327 5.0 11.0 0.00 0.00 0.00 71 1013.7
20260508223527 72 288 5.0 11.0 0.00 0.00 0.00 70 1013.7
20260508223032 72 261 5.0 10.0 0.00 0.00 0.00 70 1013.8
20260508222520 72 297 5.0 11.0 0.00 0.00 0.00 70 1013.8
20260508222024 72 308 7.0 11.0 0.00 0.00 0.00 69 1013.8
20260508221529 72 286 6.0 11.0 0.00 0.00 0.00 69 1013.9